Погода Баку

Погода Баку : погода сейчас, прогноз погоды и архив. Всё, что Вы хотите узнать о погоде Баку!

Поиск расширенной информации на нашем сайте:

Другие новости

Новости СМИ2

Главная страница сайта

Новости сайта

02.10.2013

Напоминаем, что на нашем новом сайте вы можете получить высокодетализированные прогнозы погоды по пунктам России, СНГ и мира (включающие важные для авиации метеовеличины, такие как направление и скорость ветра, видимость, явления погоды, количество и форма облачности, нижняя и верхняя граница облачности), а также ознакомиться с разнообразными материалами по авиационной метеорологии и подборкой полезных ссылок на эту тему.

Сайт Метеоцентр.Азия посвящён разработке технологий оптимизации авиаметеорологического обслуживания, включая проектирование и перспективное создание нескольких автоматизированных авиаметеорологических систем:
- система выпуска высокодетальных прогностических карт явлений погоды для нижнего воздушного пространства по России и ближнему зарубежью;
- система верификации прогнозов TAF (выпускаемых синоптиками официальных АМСГ РФ и ближнего зарубежья) и AUTOTAF (выпускаемых сайтом Метеоцентр.Азия) - выявление ошибок, онлайн-сопоставление с фактической погодой METAR, автоматическое внесение коррективов в прогнозы при резком отклонении фактической погоды от прогноза, подсчёт оправдываемости прогнозов по элементам и в целом;
- система обработки, анализа и отображения авиаметеорологической информации для применения провайдерами метеорологической информации.

Рекомендуем: Прямо из Китая капсулы kang xin - дешево!

Погода Баку - сегодня

Время (UTC), дата Ветер
(°,м/с) 
Видим.   Явления Облачность Т
(°С)
Тd
(°С)
f(%) Тe
(°С)
Pmin
(гПа)
dP
(гПа)
Po
(мм)
O2
(г/м3)
Тmin Tmax R s Состояние
почвы
12 25.02.17 160 (Ю) 9-15{18}  20000 м    ясно 
+18.7 +3 35 +18  1018.7  -2.9  759  286           
15 25.02.17 160 (Ю) 6{15}  20000 м    ясно 
+10.1 +2.3 58 +9  1019.1  759  295           
18 25.02.17 170 (Ю) 6{13}  20000 м    ясно 
+9.2 +4 70 +7  1018.7  -0.3  759  295    +21       
21 25.02.17 190 (Ю) 9-15{18}  20000 м    ясно 
+11 +0.6 49 +9  1017.4  -1.3  758  293           
00 26.02.17 180 (Ю) 7-13{16}  20000 м    ясно 
+12 -0.9 41 +11  1014.2  -3.2  755  292           
03 26.02.17 230 (ЮЗ) 20000 м    ясно 
+13 -0.7 39 +12  1011.6  -2.4  753  290           
06 26.02.17 330 (СЗ) 10  20000 м    ясно 
+12.9 +1.5 46 +11  1017.1  5.5  758  291           
09 26.02.17 340 (С) 15-28{32}  20000 м    ясно 
+11.1 +4.1 62 +8  1021.5  4.2  761  294           
12 26.02.17 330 (СЗ) 15-28{32}  20000 м    10/0 средняя 
[As op]
+7.3 +0.4 62 +3  1025.5  3.8  764  300           
15 26.02.17 330 (СЗ) 14-26{30}  20000 м    10/0 средняя 
[As op]
+4.7 -0.4 69 1027.9  2.3  765  303           
18 26.02.17 350 (С) 12-22{26}  20000 м    3/3 600 м 
[Cu hum]
+3.9 -1 70 1031.5  3.6  768  305    +13.5       
21 26.02.17 330 (СЗ) 10-17{22}  20000 м    10/0 средняя 
[As op]
+4.3 -1.5 66 1032.9  1.4  769  305           
00 27.02.17 330 (СЗ) 7{17}  20000 м    10/0 средняя 
[As op]
+4.3 -0.8 69 +1  1032.4  -0.5  769  305           
03 27.02.17 330 (СЗ) 20000 м    8/0 средняя 
[Ac cuf]
+4 -1.2 69 +1  1033.5  1.1  770  306           
06 27.02.17 130 (ЮВ) 5{15}  20000 м    8/4 600 м средняя 
[Sc|Ac trans]
+5.7 +0.3 68 +4  1032.7  -0.8  769  304  +3.7  +0.4      сухая 
09 27.02.17 170 (Ю) 20000 м    8/4 600 м средняя 
[Sc|Ac trans]
+8.6 +1.3 60 +9  1030.6  -1.9  768  300           
12 27.02.17 160 (Ю) 20000 м    9/9 600 м кучево-дожд. 
[Cb cap]
+6.7 +1.2 68 +6  1027  -3.7  765  301           
15 27.02.17 170 (Ю) 20000 м    9/9 600 м кучево-дожд. 
[Cb cap]
+6.6 +3.8 82 +5  1026.2  -0.8  764  300           
18 27.02.17 170 (Ю) 20000 м    8/0 средняя 
[As op]
+6.5 +4.4 86 +6  1025.8  -0.4  764  300    +9.1       
21 27.02.17 210 (ЮЗ) 20000 м    8/8 600 м кучево-дожд. 
[Cb cap]
+6.5 +4.9 89 +6  1025.1  -0.7  764  300           
00 28.02.17 240 (ЮЗ) 20000 м    ясно 
+5.5 +4.1 91 +5  1024.5  -0.6  763  301           
03 28.02.17 тихо ()   20000 м    ясно 
+1.8 +0.7 92 +2  1025.5  764  306           
06 28.02.17 350 (С) 20000 м    ясно 
+7.5 +2.1 69 +7  1027.7  2.2  765  300           
09 28.02.17 240 (ЮЗ) 20000 м    4/4 600 м 
[Cu hum]
+11.1 +3 57 +11  1027.7  0.1  765  296           
12 28.02.17 360 (С) 20000 м    3/0 средняя 
[Ac trans]
+10.3 +4.3 66 +10  1027.4  -0.3  765  296           
Время (UTC), дата Ветер
(°,м/с) 
Видим.   Явления Облачность Т
(°С)
Тd
(°С)
f(%) Тe
(°С)
Pmin
(гПа)
dP
(гПа)
Po
(мм)
O2
(г/м3)
Тmin Tmax R s Состояние
почвы

Для получения пояснительной информации подведите курсор к названию столбца.

ПОГОДА Баку - архив

Всё, что Вы хотите узнать о погоде Баку - удобно и подробно!

Выберите нужную дату (начиная с 1 января 2015* года) и нажмите кнопку "Найти".
Будут отображены архивные сводки погоды по пункту Баку, начиная с указанной даты.


Отображать данные в формате CSV (для использования в таблицах Excel)


Внимание! Наш архив погоды предназначен исключительно для личного некоммерческого использования в познавательных целях. Если Вам необходимы официальные справки о состоянии погоды (для производственных, юридических, коммерческих и т.п. целей), обращайтесь в органы Росгидромета.

*Примечание: данная дата относится к архиву по метеостанциям СССР (Россия, СНГ, Балтия).
Архив по метеостанциям Зарубежной Европы и Азии (кроме Китая) хранится 10 дней, по другим регионам земного шара (Китай, Африка, Америка, Австралия, Океания) - 1 день.

Баку - район местоположения метеостанции


Название, широта, долгота, высота метеостанции:
Баку (Дендропарк) 40.4°ш. 49.8°д. 61 м над ур. моря [Азербайджан]

Дополнительная информация

В oтличие oт бoльшинства пoгoдных сайтoв мы публикуем пoдрoбную метеoинфoрмацию в детальнoм прoфессиoнальнoм фoрмате.

Характеристики температуры и влажнoсти вoздуха измеряются на высoте 2 м в тени вдали oт зданий и деревьев.
Скoрoсть ветра измеряется на высoте 10 м (на урoвне рoста челoвека скoрoсть ветра ниже в 1.5-2 раза). Если метеoстанция нахoдится в гoрoде или в лесу, тo скoрoсть ветра занижена на 2-4 м/с пo сравнению с oткрытым местoм. Скoрoсть ветра над акватoриями крупных рек и oзёр, а также на вершинах хoлмoв на 2-5 м/с выше, чем в oбычных услoвиях.
Атмoсфернoе давление в разных тoчках местнoсти мoжет значительнo oтличаться oт давления на метеoстанции, в зависимoсти oт услoвий рельефа (при пoдъёме на 10 м давление пoнижается примернo на 1 мм рт.ст.).